Location: Killam
(52.7910°N, 111.8608°W)
Time: 21:47:43
(UTC+00:00)

Vanguard 1 - Visible Passes

Search period start: 17 February 2026 00:00
Search period end: 27 February 2026 00:00
Orbit: 652 x 3820 km, 34.3° (Epoch: 15 February)

Date Brightness Start Highest point End Pass type
(mag) Time Alt. Az. Time Alt. Az. Time Alt. Az.
17 Feb 13.3 01:56:28 10° WSW 02:11:15 42° S 02:31:34 10° SE visible
17 Feb 13.6 04:18:07 10° W 04:34:08 32° SSW 04:44:53 22° S visible
17 Feb 14.0 06:46:38 10° WSW 06:55:28 14° SW 06:57:29 13° SW visible
18 Feb 13.3 02:15:36 10° WSW 02:30:21 40° S 02:50:24 10° SE visible
18 Feb 13.7 04:37:54 10° W 04:53:00 28° SSW 05:03:23 20° S visible
19 Feb 13.4 02:34:50 10° WSW 02:49:27 38° SSW 03:09:01 10° SE visible
19 Feb 13.8 04:58:03 10° W 05:11:48 23° SW 05:21:58 17° S visible
20 Feb 13.5 02:54:12 10° WSW 03:08:31 34° SSW 03:27:22 10° SE visible
20 Feb 14.0 05:18:48 10° WSW 05:30:32 18° SW 05:40:38 13° SSW visible
21 Feb 13.3 00:53:01 10° WSW 01:05:11 39° S 01:23:40 10° ESE visible
21 Feb 13.6 03:13:42 10° WSW 03:27:33 30° SSW 03:45:23 10° SSE visible
21 Feb 14.1 05:40:54 10° WSW 05:49:11 14° SW 05:58:02 10° SSW visible
22 Feb 13.3 01:12:06 10° WSW 01:24:17 37° S 01:42:31 10° SE visible
22 Feb 13.7 03:33:27 10° WSW 03:46:32 26° SSW 04:02:58 10° SSE visible
23 Feb 13.4 01:31:19 10° WSW 01:43:23 35° SSW 02:01:09 10° SE visible
23 Feb 13.9 03:53:34 10° WSW 04:05:28 22° SW 04:19:57 10° S visible
24 Feb 13.5 01:50:38 10° WSW 02:02:29 31° SSW 02:19:30 10° SE visible
24 Feb 14.0 04:14:22 10° WSW 04:24:21 17° SW 04:36:02 10° S visible
25 Feb 13.6 02:10:08 10° WSW 02:21:34 28° SSW 02:37:30 10° SSE visible
25 Feb 14.2 04:36:46 10° WSW 04:43:10 12° SW 04:50:13 10° SSW visible
26 Feb 13.8 02:29:55 10° WSW 02:40:38 23° SSW 02:55:02 10° SSE visible
